EJA239 KTEB-KAPA

Flight info

Callsign EJA239
Flight time N/A
Altitude 38000
Route NEWEL J60 DJB JOT/N0449F400 IOW OBH SNY LANDR3
Aircraft CL60/M-SBDE1E2E3FGHIJ4J5J7M3RWXYZ/LB1V1D1

Departure

Time 2026-05-01 13:24
Airport Teterboro Airport (KTEB)

Arrival

Time N/A
Airport Centennial Airport (KAPA)
Time Latitude Longitude Altitude Speed Heading
2026-05-01 12:59 40.84690 -74.06634 10 ft 0 kts 229°
2026-05-01 13:18 40.84688 -74.06638 10 ft 3 kts 230°
2026-05-01 13:18 40.84677 -74.06670 10 ft 8 kts 280°
2026-05-01 13:18 40.84715 -74.06715 10 ft 6 kts 341°
2026-05-01 13:19 40.84764 -74.06680 10 ft 12 kts 49°
2026-05-01 13:19 40.84838 -74.06571 10 ft 19 kts 48°
2026-05-01 13:19 40.85003 -74.06329 11 ft 16 kts 47°
2026-05-01 13:20 40.85075 -74.06222 11 ft 14 kts 48°
2026-05-01 13:20 40.85144 -74.06119 11 ft 15 kts 48°
2026-05-01 13:20 40.85202 -74.06029 11 ft 11 kts 48°
2026-05-01 13:21 40.85313 -74.05870 12 ft 12 kts 48°
2026-05-01 13:21 40.85376 -74.05778 12 ft 14 kts 47°
2026-05-01 13:21 40.85444 -74.05676 12 ft 15 kts 49°
2026-05-01 13:21 40.85521 -74.05566 12 ft 16 kts 47°
2026-05-01 13:22 40.85593 -74.05459 12 ft 12 kts 50°
2026-05-01 13:22 40.85653 -74.05367 12 ft 13 kts 48°
2026-05-01 13:22 40.85679 -74.05332 12 ft 2 kts 28°
2026-05-01 13:22 40.85696 -74.05335 12 ft 4 kts 330°
2026-05-01 13:23 40.85726 -74.05370 12 ft 6 kts 316°
2026-05-01 13:23 40.85759 -74.05416 12 ft 6 kts 284°
2026-05-01 13:23 40.85743 -74.05456 12 ft 0 kts 228°
2026-05-01 13:23 40.85706 -74.05512 12 ft 34 kts 229°
2026-05-01 13:24 40.85324 -74.06074 12 ft 125 kts 229°
2026-05-01 13:24 40.84627 -74.07082 402 ft 160 kts 230°
2026-05-01 13:24 40.83818 -74.08202 1072 ft 181 kts 231°
2026-05-01 13:25 40.82095 -74.10798 2694 ft 212 kts 235°
2026-05-01 13:25 40.81189 -74.12356 3293 ft 212 kts 250°
2026-05-01 13:25 40.80965 -74.13588 3687 ft 204 kts 275°
2026-05-01 13:25 40.81115 -74.16041 4490 ft 201 kts 279°
2026-05-01 13:26 40.81245 -74.17861 5084 ft 202 kts 279°
2026-05-01 13:26 40.81369 -74.19701 5686 ft 202 kts 278°
2026-05-01 13:26 40.81476 -74.21556 6297 ft 203 kts 278°
2026-05-01 13:26 40.81581 -74.23461 6958 ft 221 kts 277°
2026-05-01 13:27 40.81693 -74.25534 7787 ft 233 kts 277°
2026-05-01 13:27 40.81805 -74.27679 8705 ft 238 kts 277°
2026-05-01 13:27 40.82026 -74.31992 10614 ft 240 kts 277°
2026-05-01 13:28 40.82248 -74.36407 12597 ft 246 kts 276°
2026-05-01 13:28 40.82358 -74.38621 13604 ft 247 kts 275°
2026-05-01 13:29 40.82543 -74.42385 15321 ft 246 kts 275°
2026-05-01 13:29 40.82756 -74.46767 17305 ft 239 kts 274°
2026-05-01 13:30 40.83200 -74.56047 20291 ft 259 kts 273°
2026-05-01 13:31 40.83440 -74.61135 21123 ft 287 kts 273°
2026-05-01 13:31 40.83810 -74.69091 23332 ft 293 kts 272°
2026-05-01 13:32 40.84058 -74.74502 24714 ft 297 kts 272°
2026-05-01 13:33 40.84431 -74.82723 26503 ft 303 kts 272°
2026-05-01 13:33 40.84681 -74.88332 27528 ft 308 kts 272°
2026-05-01 13:34 40.84933 -74.94021 28515 ft 312 kts 273°
2026-05-01 13:34 40.85181 -74.99706 29453 ft 314 kts 272°
2026-05-01 13:35 40.85431 -75.05493 30310 ft 317 kts 272°
2026-05-01 13:35 40.85515 -75.07438 30545 ft 317 kts 273°
2026-05-01 13:35 40.85805 -75.14285 31152 ft 325 kts 272°
2026-05-01 13:36 40.85932 -75.17320 31412 ft 328 kts 272°
2026-05-01 13:36 40.86058 -75.20332 31677 ft 331 kts 273°
2026-05-01 13:36 40.86309 -75.26414 32195 ft 335 kts 273°
2026-05-01 13:37 40.86436 -75.29519 32405 ft 338 kts 273°
2026-05-01 13:37 40.86520 -75.31576 32571 ft 339 kts 273°
2026-05-01 13:37 40.86689 -75.35741 32820 ft 344 kts 272°
2026-05-01 13:37 40.86713 -75.38932 33032 ft 346 kts 267°
2026-05-01 13:38 40.85857 -75.44127 33407 ft 350 kts 256°
2026-05-01 13:38 40.84882 -75.48231 33629 ft 354 kts 256°
2026-05-01 13:38 40.84143 -75.51354 33871 ft 355 kts 256°
2026-05-01 13:39 40.83413 -75.54434 34159 ft 355 kts 256°
2026-05-01 13:39 40.82671 -75.57560 34460 ft 354 kts 256°
2026-05-01 13:39 40.81937 -75.60647 34733 ft 353 kts 256°
2026-05-01 13:39 40.81207 -75.63713 35023 ft 352 kts 256°
2026-05-01 13:40 40.80470 -75.66806 35218 ft 353 kts 255°
2026-05-01 13:40 40.79735 -75.69885 35443 ft 353 kts 255°
2026-05-01 13:40 40.78983 -75.73033 35640 ft 355 kts 255°
2026-05-01 13:40 40.78495 -75.75074 35786 ft 355 kts 255°
2026-05-01 13:41 40.77507 -75.79196 36073 ft 355 kts 255°
2026-05-01 13:41 40.76762 -75.82301 36284 ft 355 kts 255°
2026-05-01 13:41 40.76015 -75.85413 36462 ft 355 kts 255°
2026-05-01 13:41 40.75266 -75.88526 36599 ft 357 kts 254°
2026-05-01 13:42 40.74511 -75.91661 36756 ft 357 kts 254°
2026-05-01 13:42 40.74010 -75.93738 36866 ft 357 kts 254°
2026-05-01 13:42 40.73258 -75.96850 37014 ft 357 kts 254°
2026-05-01 13:42 40.72247 -76.01033 37201 ft 358 kts 255°
2026-05-01 13:43 40.71492 -76.04147 37367 ft 358 kts 254°
2026-05-01 13:43 40.70732 -76.07282 37492 ft 359 kts 255°
2026-05-01 13:43 40.69971 -76.10413 37570 ft 360 kts 254°
2026-05-01 13:43 40.69214 -76.13528 37701 ft 361 kts 255°
2026-05-01 13:44 40.68444 -76.16689 37834 ft 361 kts 254°
2026-05-01 13:44 40.67691 -76.19876 37975 ft 360 kts 257°
2026-05-01 13:44 40.67224 -76.23086 37983 ft 362 kts 265°
2026-05-01 13:45 40.67347 -76.28627 38014 ft 368 kts 278°
2026-05-01 13:45 40.68512 -76.36455 38001 ft 376 kts 279°
2026-05-01 13:46 40.69529 -76.43256 38008 ft 381 kts 279°
2026-05-01 13:46 40.70390 -76.49030 38015 ft 385 kts 279°
2026-05-01 13:47 40.71603 -76.57217 37996 ft 392 kts 279°
2026-05-01 13:47 40.72645 -76.64280 38010 ft 396 kts 279°
2026-05-01 13:48 40.73696 -76.71448 38012 ft 400 kts 279°
2026-05-01 13:48 40.74750 -76.78661 38013 ft 404 kts 279°
2026-05-01 13:49 40.75814 -76.85986 38013 ft 406 kts 279°
2026-05-01 13:49 40.76694 -76.92065 38009 ft 408 kts 279°
2026-05-01 13:50 40.77938 -77.00698 37996 ft 409 kts 278°
2026-05-01 13:50 40.78817 -77.06830 38002 ft 409 kts 278°
2026-05-01 13:51 40.79868 -77.14195 38007 ft 409 kts 279°
2026-05-01 13:51 40.81089 -77.22804 37992 ft 409 kts 279°
2026-05-01 13:52 40.82131 -77.30178 38001 ft 408 kts 279°
2026-05-01 13:52 40.83176 -77.37617 37982 ft 408 kts 279°
2026-05-01 13:53 40.84201 -77.44949 37995 ft 408 kts 279°
2026-05-01 13:53 40.85739 -77.56023 37986 ft 408 kts 279°
2026-05-01 13:54 40.86588 -77.62171 37985 ft 408 kts 279°
2026-05-01 13:54 40.87771 -77.70782 37983 ft 407 kts 278°
2026-05-01 13:55 40.88776 -77.78131 37991 ft 407 kts 278°
2026-05-01 13:55 40.89783 -77.85538 37984 ft 407 kts 278°
2026-05-01 13:56 40.90776 -77.92880 37985 ft 407 kts 278°
2026-05-01 13:56 40.91763 -78.00253 37980 ft 407 kts 278°
2026-05-01 13:57 40.92525 -78.06370 37983 ft 406 kts 278°
2026-05-01 13:57 40.93583 -78.14930 37968 ft 406 kts 277°
2026-05-01 13:58 40.94492 -78.22325 37965 ft 406 kts 278°
2026-05-01 13:58 40.95239 -78.28433 37964 ft 405 kts 278°
2026-05-01 13:59 40.96283 -78.37019 37976 ft 406 kts 278°
2026-05-01 13:59 40.97181 -78.44437 37974 ft 407 kts 278°
2026-05-01 14:00 40.98069 -78.51825 37981 ft 407 kts 278°
2026-05-01 14:00 40.98954 -78.59226 37972 ft 407 kts 278°
2026-05-01 14:01 40.99687 -78.65380 37968 ft 407 kts 277°
2026-05-01 14:01 41.00711 -78.74033 37959 ft 408 kts 277°
2026-05-01 14:02 41.01436 -78.80196 37957 ft 407 kts 277°
2026-05-01 14:02 41.02305 -78.87620 37960 ft 407 kts 277°
2026-05-01 14:03 41.03166 -78.95022 37942 ft 408 kts 277°
2026-05-01 14:03 41.04026 -79.02448 37940 ft 407 kts 277°
2026-05-01 14:04 41.04875 -79.09833 37957 ft 407 kts 277°
2026-05-01 14:04 41.05727 -79.17287 37944 ft 408 kts 277°
2026-05-01 14:05 41.06569 -79.24684 37937 ft 408 kts 277°
2026-05-01 14:05 41.07544 -79.33321 37933 ft 407 kts 277°
2026-05-01 14:06 41.08378 -79.40747 37950 ft 407 kts 277°
2026-05-01 14:06 41.09206 -79.48164 37946 ft 407 kts 277°
2026-05-01 14:07 41.10024 -79.55544 37937 ft 408 kts 277°
2026-05-01 14:08 41.11253 -79.66712 37949 ft 407 kts 277°
2026-05-01 14:08 41.11930 -79.72910 37947 ft 408 kts 277°
2026-05-01 14:09 41.12877 -79.81621 37943 ft 409 kts 277°
2026-05-01 14:09 41.13549 -79.87849 37947 ft 409 kts 277°
2026-05-01 14:10 41.14350 -79.95306 37939 ft 408 kts 277°
2026-05-01 14:10 41.15281 -80.04039 37945 ft 409 kts 277°
2026-05-01 14:11 41.15937 -80.10232 37945 ft 409 kts 277°
2026-05-01 14:11 41.17248 -80.22700 37945 ft 408 kts 277°
2026-05-01 14:12 41.17894 -80.28894 37955 ft 407 kts 277°
2026-05-01 14:12 41.18661 -80.36295 37962 ft 406 kts 277°
2026-05-01 14:13 41.19425 -80.43714 37959 ft 406 kts 277°
2026-05-01 14:13 41.20315 -80.52415 37962 ft 406 kts 277°
2026-05-01 14:14 41.20942 -80.58591 37964 ft 406 kts 277°
2026-05-01 14:14 41.21690 -80.66000 37967 ft 406 kts 276°
2026-05-01 14:15 41.22435 -80.73431 37962 ft 406 kts 276°
2026-05-01 14:15 41.23305 -80.82163 37955 ft 405 kts 276°
2026-05-01 14:16 41.23913 -80.88310 37957 ft 405 kts 276°
2026-05-01 14:16 41.24642 -80.95724 37965 ft 404 kts 276°
2026-05-01 14:17 41.25362 -81.03095 37955 ft 404 kts 277°
2026-05-01 14:17 41.26083 -81.10530 37958 ft 404 kts 276°
2026-05-01 14:18 41.26797 -81.17948 37963 ft 404 kts 277°
2026-05-01 14:18 41.27506 -81.25349 37964 ft 405 kts 277°
2026-05-01 14:19 41.28212 -81.32780 37966 ft 405 kts 277°
2026-05-01 14:19 41.29023 -81.41391 37965 ft 405 kts 276°
2026-05-01 14:20 41.29951 -81.51321 37960 ft 405 kts 276°
2026-05-01 14:21 41.30637 -81.58720 37962 ft 405 kts 277°
2026-05-01 14:21 41.31325 -81.66196 37961 ft 405 kts 276°
2026-05-01 14:22 41.32339 -81.77339 37959 ft 406 kts 276°
2026-05-01 14:22 41.33015 -81.84812 37962 ft 405 kts 276°
2026-05-01 14:23 41.33682 -81.92258 37967 ft 406 kts 276°
2026-05-01 14:23 41.34345 -81.99710 37966 ft 406 kts 276°
2026-05-01 14:24 41.35004 -82.07179 37974 ft 407 kts 276°
2026-05-01 14:24 41.35660 -82.14666 37978 ft 407 kts 276°
2026-05-01 14:25 41.36139 -82.22166 37966 ft 406 kts 274°
2026-05-01 14:25 41.36559 -82.29610 37973 ft 405 kts 274°
2026-05-01 14:26 41.37182 -82.40807 37969 ft 405 kts 275°
2026-05-01 14:27 41.37594 -82.48318 37977 ft 404 kts 275°
2026-05-01 14:27 41.37999 -82.55776 37952 ft 404 kts 274°
2026-05-01 14:28 41.38597 -82.66972 37974 ft 404 kts 274°
2026-05-01 14:28 41.38989 -82.74429 37961 ft 405 kts 274°
2026-05-01 14:29 41.39378 -82.81894 37959 ft 405 kts 274°
2026-05-01 14:30 41.40141 -82.96849 37964 ft 404 kts 274°
2026-05-01 14:31 41.40699 -83.08024 37960 ft 403 kts 274°
2026-05-01 14:31 41.41064 -83.15462 37965 ft 403 kts 274°
2026-05-01 14:32 41.41423 -83.22892 37966 ft 403 kts 274°
2026-05-01 14:32 41.41781 -83.30377 37965 ft 403 kts 274°
2026-05-01 14:33 41.42132 -83.37815 37976 ft 403 kts 274°
2026-05-01 14:33 41.42479 -83.45272 37990 ft 403 kts 274°
2026-05-01 14:34 41.42820 -83.52726 37977 ft 402 kts 274°
2026-05-01 14:34 41.43156 -83.60151 37985 ft 402 kts 274°
2026-05-01 14:35 41.43489 -83.67612 37982 ft 402 kts 273°
2026-05-01 14:35 41.43817 -83.75095 37990 ft 403 kts 273°
2026-05-01 14:36 41.44138 -83.82516 37981 ft 402 kts 274°
2026-05-01 14:36 41.44454 -83.89938 37987 ft 402 kts 274°
2026-05-01 14:37 41.44766 -83.97366 37981 ft 402 kts 273°
2026-05-01 14:37 41.45075 -84.04839 37989 ft 402 kts 273°
2026-05-01 14:38 41.45377 -84.12274 37994 ft 402 kts 273°
2026-05-01 14:38 41.45675 -84.19705 37992 ft 402 kts 273°
2026-05-01 14:39 41.45968 -84.27145 37990 ft 402 kts 273°
2026-05-01 14:39 41.46256 -84.34570 37999 ft 402 kts 273°
2026-05-01 14:40 41.46537 -84.41971 37995 ft 401 kts 273°
2026-05-01 14:40 41.46816 -84.49416 37999 ft 402 kts 273°
2026-05-01 14:41 41.47090 -84.56854 37999 ft 401 kts 273°
2026-05-01 14:41 41.47359 -84.64284 38002 ft 401 kts 273°
2026-05-01 14:42 41.47622 -84.71701 38003 ft 402 kts 272°
2026-05-01 14:42 41.47882 -84.79157 37999 ft 402 kts 272°
2026-05-01 14:43 41.48136 -84.86582 37999 ft 402 kts 273°
2026-05-01 14:43 41.48386 -84.94032 38006 ft 401 kts 273°
2026-05-01 14:44 41.48631 -85.01475 38007 ft 401 kts 273°
2026-05-01 14:44 41.48990 -85.12646 38017 ft 402 kts 272°
2026-05-01 14:45 41.49336 -85.23773 38014 ft 402 kts 273°
2026-05-01 14:46 41.49563 -85.31242 38019 ft 402 kts 272°
2026-05-01 14:46 41.49894 -85.42432 38017 ft 402 kts 273°
2026-05-01 14:47 41.50107 -85.49854 38011 ft 402 kts 273°
2026-05-01 14:48 41.50419 -85.61033 38026 ft 402 kts 273°
2026-05-01 14:48 41.50721 -85.72230 38033 ft 403 kts 272°
2026-05-01 14:49 41.51109 -85.87228 38034 ft 403 kts 272°
2026-05-01 14:50 41.51474 -86.02133 38037 ft 404 kts 272°
2026-05-01 14:51 41.51737 -86.13380 38029 ft 404 kts 272°
2026-05-01 14:52 41.51989 -86.24640 38031 ft 404 kts 272°
2026-05-01 14:53 41.52230 -86.35860 38051 ft 404 kts 272°
2026-05-01 14:53 41.52385 -86.43381 38048 ft 404 kts 272°
2026-05-01 14:54 41.52535 -86.50893 38051 ft 404 kts 272°
2026-05-01 14:54 41.52680 -86.58385 38062 ft 404 kts 272°
2026-05-01 14:55 41.52820 -86.65883 38056 ft 405 kts 271°
2026-05-01 14:55 41.52955 -86.73413 38067 ft 405 kts 271°
2026-05-01 14:56 41.53086 -86.80950 38060 ft 405 kts 272°
2026-05-01 14:56 41.53211 -86.88419 38073 ft 404 kts 272°
2026-05-01 14:57 41.53332 -86.95937 38066 ft 403 kts 272°
2026-05-01 14:57 41.53503 -87.07184 38074 ft 404 kts 271°
2026-05-01 14:58 41.53611 -87.14651 38076 ft 404 kts 271°
2026-05-01 14:58 41.53714 -87.22147 38074 ft 404 kts 272°
2026-05-01 14:59 41.53812 -87.29628 38065 ft 404 kts 272°
2026-05-01 14:59 41.53929 -87.37149 37941 ft 406 kts 273°
2026-05-01 15:00 41.54069 -87.48358 38068 ft 402 kts 271°
2026-05-01 15:01 41.54143 -87.55888 38068 ft 405 kts 272°
2026-05-01 15:01 41.54214 -87.63380 38081 ft 405 kts 271°
2026-05-01 15:02 41.54287 -87.70936 38078 ft 406 kts 271°
2026-05-01 15:02 41.54357 -87.78468 38076 ft 405 kts 271°
2026-05-01 15:03 41.54420 -87.86014 38089 ft 404 kts 271°
2026-05-01 15:03 41.54477 -87.93462 38092 ft 404 kts 271°
2026-05-01 15:04 41.54529 -88.00975 38092 ft 404 kts 271°
2026-05-01 15:04 41.54581 -88.08433 38091 ft 404 kts 272°
2026-05-01 15:05 41.54642 -88.15949 38095 ft 404 kts 271°
2026-05-01 15:05 41.54687 -88.23419 38099 ft 404 kts 271°
2026-05-01 15:06 41.54709 -88.30917 38097 ft 404 kts 271°
2026-05-01 15:06 41.54720 -88.33809 38091 ft 403 kts 271°
2026-05-01 15:07 41.54754 -88.41164 38103 ft 403 kts 271°
2026-05-01 15:07 41.54786 -88.48690 38095 ft 404 kts 271°
2026-05-01 15:08 41.54814 -88.56142 38092 ft 404 kts 271°
2026-05-01 15:08 41.54838 -88.63676 38090 ft 404 kts 271°
2026-05-01 15:09 41.54857 -88.71196 38101 ft 405 kts 271°
2026-05-01 15:09 41.54871 -88.78711 38100 ft 404 kts 271°
2026-05-01 15:10 41.54880 -88.86194 38097 ft 404 kts 271°
2026-05-01 15:10 41.54887 -88.97424 38091 ft 404 kts 271°
2026-05-01 15:11 41.54884 -89.08612 38083 ft 403 kts 271°
2026-05-01 15:12 41.54877 -89.16105 38082 ft 403 kts 271°
2026-05-01 15:12 41.54857 -89.27286 38084 ft 403 kts 271°
2026-05-01 15:14 41.54796 -89.45969 38090 ft 403 kts 270°
2026-05-01 15:14 41.54744 -89.57184 38094 ft 404 kts 270°
2026-05-01 15:15 41.54658 -89.72215 38098 ft 405 kts 270°
2026-05-01 15:16 41.54553 -89.87283 38102 ft 404 kts 270°
2026-05-01 15:18 41.54395 -90.06037 38102 ft 404 kts 270°
2026-05-01 15:19 41.54248 -90.21094 38106 ft 404 kts 270°
2026-05-01 15:19 41.54175 -90.27917 38104 ft 404 kts 270°
2026-05-01 15:20 41.54055 -90.38116 38102 ft 405 kts 270°
2026-05-01 15:21 41.53960 -90.45667 38106 ft 405 kts 270°
2026-05-01 15:21 41.53862 -90.53185 38107 ft 406 kts 270°
2026-05-01 15:22 41.53706 -90.64442 38107 ft 406 kts 270°
2026-05-01 15:22 41.53594 -90.72026 38105 ft 406 kts 269°
2026-05-01 15:23 41.53479 -90.79588 38107 ft 406 kts 269°
2026-05-01 15:23 41.53360 -90.87082 38102 ft 405 kts 269°
2026-05-01 15:24 41.53236 -90.94571 38088 ft 406 kts 269°
2026-05-01 15:24 41.53106 -91.02092 38087 ft 406 kts 269°
2026-05-01 15:25 41.52971 -91.09634 38091 ft 406 kts 269°
2026-05-01 15:25 41.52831 -91.17176 38093 ft 406 kts 269°
2026-05-01 15:26 41.52685 -91.24740 38096 ft 406 kts 269°
2026-05-01 15:26 41.52535 -91.32288 38094 ft 407 kts 269°
2026-05-01 15:27 41.52380 -91.39844 38097 ft 407 kts 269°
2026-05-01 15:28 41.52138 -91.51147 38096 ft 407 kts 269°
2026-05-01 15:28 41.51970 -91.58721 38090 ft 408 kts 269°
2026-05-01 15:29 41.51972 -91.70108 38090 ft 409 kts 270°
2026-05-01 15:30 41.52071 -91.85280 38086 ft 408 kts 270°
2026-05-01 15:31 41.52181 -92.08024 38083 ft 408 kts 271°
2026-05-01 15:32 41.52229 -92.23223 38079 ft 409 kts 270°
2026-05-01 15:34 41.52263 -92.46069 38086 ft 412 kts 271°